Flag for Indonesia Weather past 2 weeks in Manado, North Sulawesi, Indonesia

Now
79 °F

Passing clouds.


Feels Like: 82 °F
Forecast: 73 / 88 °F
Wind: 1 mph from North

Location: Menado / Dr. Sam Ratulangi

Current Time: Apr 25, 2015 at 9:04:01 PM

Latest Report: Apr 25, 2015 at 8:30 PM


Visibility: 6 mi

Pressure: 29.86 "Hg

Humidity: 89%

Dew point: 75 °F

Location of ManadoLocation

Historic Weather in Manado — Graph

°F

Manado temperature yesterday

Maximum temperature yesterday: 90 °F (at 12:00 PM)
Minimum temperature yesterday: 73 °F (at 1:00 AM)
Average temperature yesterday: 81 °F

Past Weeks' High & Low Weather Summary

 TemperatureHumidityPressure
High91 °F (Apr 15, 12:00 PM)100% (Apr 11, 5:00 AM)29.95 "Hg (Apr 11, 5:00 AM)
Low72 °F (Apr 11, 4:30 AM)49% (Apr 22, 11:00 AM)29.74 "Hg (Apr 24, 2:30 PM)
Average82 °F80%29.85 "Hg
* Reported Apr 10 8:00 PM — Apr 25 8:00 PM, Manado, Weather by CustomWeather, © 2015

Note: Actual official high and low records may vary slightly from our data, if they occured in-between our weather recording intervals... More about our weather records

Advertising

Manado weather history for previous 24 hours

 ConditionsComfort  
Time TempWeatherWind HumidityBarometerVisibility
8:00 PM
Sat, Apr 25
79 °FPassing clouds.2 mph89%29.86 "Hg6 mi
7:30 PM81 °FPassing clouds.2 mph84%29.86 "Hg6 mi
7:00 PM81 °FPassing clouds.3 mph84%29.83 "Hg6 mi
6:30 PM82 °FPassing clouds.2 mph79%29.83 "HgN/A
6:00 PM82 °FPassing clouds.3 mph79%29.80 "HgN/A
5:30 PM84 °FPassing clouds.6 mph74%29.80 "HgN/A
5:00 PM86 °FPassing clouds.5 mph70%29.80 "HgN/A
4:30 PM86 °FScattered clouds.8 mph70%29.77 "HgN/A
4:00 PM88 °FScattered clouds.8 mph66%29.77 "HgN/A
3:30 PM88 °FScattered clouds.7 mph62%29.77 "HgN/A
3:00 PM88 °FScattered clouds.8 mph62%29.74 "HgN/A
2:30 PM90 °FScattered clouds.7 mph59%29.77 "HgN/A
2:00 PM90 °FScattered clouds.6 mph55%29.77 "HgN/A
1:30 PM90 °FScattered clouds.8 mph59%29.77 "HgN/A
1:00 PM90 °FScattered clouds.7 mph59%29.77 "HgN/A
12:30 PM90 °FScattered clouds.5 mph59%29.80 "HgN/A
12:00 PM90 °FScattered clouds.3 mph59%29.80 "HgN/A
11:00 AM86 °FScattered clouds.3 mph66%29.83 "HgN/A
10:30 AM86 °FScattered clouds.5 mph70%29.86 "HgN/A
10:00 AM88 °FScattered clouds.3 mph62%29.86 "HgN/A
9:30 AM86 °FScattered clouds.2 mph66%29.86 "HgN/A
9:00 AM86 °FPassing clouds.3 mph70%29.86 "HgN/A
8:30 AM84 °FPassing clouds.1 mph70%29.86 "HgN/A
8:00 AM81 °FPassing clouds.1 mph84%29.86 "HgN/A
7:30 AM79 °FPassing clouds.2 mph89%29.86 "HgN/A
7:00 AM79 °FPassing clouds.2 mph84%29.86 "Hg6 mi
6:00 AM73 °FPassing clouds.3 mph94%29.83 "Hg6 mi
5:00 AM72 °FPassing clouds.2 mph100%29.83 "Hg6 mi
2:00 AM73 °FPassing clouds.1 mph94%29.83 "Hg6 mi
11:30 PM
Fri, Apr 24
75 °FPassing clouds.2 mph94%29.86 "Hg6 mi
11:00 PM75 °FPassing clouds.No wind94%29.86 "HgN/A
10:30 PM75 °FPassing clouds.1 mph94%29.86 "Hg6 mi
10:00 PM77 °FPassing clouds.3 mph89%29.86 "Hg6 mi
9:00 PM79 °FPassing clouds.5 mph84%29.86 "Hg6 mi
Weather by CustomWeather, © 2015

See weather overviewHow to use our weather pages